Weather History for EHVK - November, 2013

Change the Weather History Date:

Sunday, November 10, 2013

  Actual Average Record
Temperature  
Mean Temperature 42 °F -  
Max Temperature 48 °F 45 °F 59 °F (2008)
Min Temperature 35 °F 34 °F 28 °F (2002)
Degree Days  
Heating Degree Days 24    
Moisture  
Dew Point 39 °F    
Average Humidity 89    
Maximum Humidity 100    
Minimum Humidity 71    
Precipitation  
Precipitation 0.00 in - - ()
Sea Level Pressure  
Sea Level Pressure 29.77 in    
Wind  
Wind Speed 6 mph ()    
Max Wind Speed 10 mph    
Max Gust Speed 20 mph    
Visibility 5.8 miles    
Events Rain    
Averages and records for this station are not official NWS values.
T = Trace of Precipitation, MM = Missing Value Source: Averaged Metar Reports

Daily Weather History Graph

Daily Weather History Graph

Search for Another Location

Airport or City:

Trip Planner

Search our weather history database for the weather conditions in past years. The results will help you decide how hot, cold, wet, or windy it might be!

Date:

Astronomy

Nov. 10, 2013 Rise Set
Actual Time 7:47 AM CET 4:54 PM CET
Civil Twilight 7:10 AM CET 5:30 PM CET
Nautical Twilight 6:30 AM CET 6:11 PM CET
Astronomical Twilight 5:51 AM CET 6:50 PM CET
Moon 1:37 PM CET (11/10) No Moon Set
Length of Visible Light 10h 20m
Length of Day
9h 07m
First Quarter, 52% of the Moon is Illuminated
Nov 10
First Quarter
Nov 17
Full
Nov 25
Last Quarter
Dec 3
New
Dec 9
First Quarter

Hourly Weather History & Observations

Time (CET) Temp. Windchill Dew Point Humidity Pressure Visibility Wind Dir Wind Speed Gust Speed Precip Events Conditions
12:25 AM 42.8 °F 38.6 °F 41.0 °F 93% 29.59 in 6.2 mi West 6.9 mph - N/A   Mostly Cloudy
12:55 AM 41.0 °F 36.4 °F 41.0 °F 100% 29.59 in 6.2 mi WSW 6.9 mph - N/A   Mostly Cloudy
1:25 AM 42.8 °F 38.6 °F 41.0 °F 93% 29.59 in 6.2 mi WSW 6.9 mph - N/A   Overcast
1:55 AM 41.0 °F 37.1 °F 39.2 °F 93% 29.59 in 6.2 mi SW 5.8 mph - N/A   Overcast
2:25 AM 39.2 °F 35.0 °F 39.2 °F 100% 29.59 in 6.2 mi SW 5.8 mph - N/A   Partly Cloudy
2:55 AM 39.2 °F 35.0 °F 39.2 °F 100% 29.59 in 5.6 mi SW 5.8 mph - N/A   Scattered Clouds
3:03 AM 39.2 °F 35.0 °F 37.4 °F 93% 29.59 in 4.3 mi SW 5.8 mph - N/A   Overcast
3:25 AM 39.2 °F 35.0 °F 39.2 °F 100% 29.59 in 5.0 mi SW 5.8 mph - N/A   Overcast
3:36 AM 39.2 °F 34.2 °F 39.2 °F 100% 29.59 in 6.2 mi SW 6.9 mph - N/A   Overcast
3:55 AM 39.2 °F 35.0 °F 39.2 °F 100% 29.59 in 6.2 mi SSW 5.8 mph - N/A   Mostly Cloudy
4:25 AM 41.0 °F 36.4 °F 41.0 °F 100% 29.59 in 6.2 mi SW 6.9 mph - N/A   Overcast
4:55 AM 41.0 °F 37.1 °F 41.0 °F 100% 29.59 in 6.2 mi SW 5.8 mph - N/A   Overcast
5:19 AM 41.0 °F 36.4 °F 41.0 °F 100% 29.59 in 4.3 mi SW 6.9 mph - N/A   Mostly Cloudy
5:25 AM 41.0 °F 37.1 °F 41.0 °F 100% 29.59 in 4.3 mi SW 5.8 mph - N/A   Mostly Cloudy
5:55 AM 42.8 °F 38.6 °F 41.0 °F 93% 29.59 in 3.7 mi SW 6.9 mph - N/A   Mostly Cloudy
6:25 AM 42.8 °F 38.6 °F 42.8 °F 100% 29.59 in 3.7 mi SW 6.9 mph - N/A   Mostly Cloudy
6:31 AM 42.8 °F 38.0 °F 42.8 °F 100% 29.59 in 5.0 mi SW 8.1 mph - N/A   Mostly Cloudy
6:44 AM 42.8 °F 37.0 °F 42.8 °F 100% 29.59 in 5.6 mi SW 10.4 mph - N/A   Mostly Cloudy
6:55 AM 42.8 °F 37.0 °F 42.8 °F 100% 29.59 in 6.2 mi SW 10.4 mph - N/A   Light Drizzle
7:11 AM 42.8 °F 38.6 °F 41.0 °F 93% 29.62 in 3.1 mi West 6.9 mph - N/A Rain Rain
7:17 AM 42.8 °F 38.6 °F 41.0 °F 93% 29.62 in 3.1 mi NW 6.9 mph - N/A Rain Rain Showers
7:25 AM 42.8 °F 38.6 °F 41.0 °F 93% 29.62 in 3.7 mi NW 6.9 mph - N/A Rain Rain Showers
7:37 AM 41.0 °F 38.0 °F 39.2 °F 93% 29.62 in 6.2 mi West 4.6 mph - N/A Rain Light Rain
7:55 AM 42.8 °F 39.3 °F 41.0 °F 93% 29.62 in 6.2 mi West 5.8 mph - N/A   Mostly Cloudy
8:15 AM 42.8 °F 37.5 °F 41.0 °F 93% 29.65 in 6.2 mi WSW 9.2 mph - N/A   Drizzle
8:19 AM 42.8 °F 38.0 °F 41.0 °F 93% 29.65 in 6.2 mi West 8.1 mph - N/A Rain Light Rain
8:25 AM 42.8 °F 38.0 °F 41.0 °F 93% 29.65 in 3.7 mi West 8.1 mph - N/A Rain Rain Showers
8:32 AM 42.8 °F 38.0 °F 39.2 °F 87% 29.65 in 4.3 mi WNW 8.1 mph 19.6 mph N/A Rain Light Rain
8:39 AM 41.0 °F 35.8 °F 39.2 °F 93% 29.65 in 6.2 mi NW 8.1 mph 19.6 mph N/A Rain Light Rain
8:55 AM 41.0 °F 34.7 °F 37.4 °F 87% 29.68 in 6.2 mi NW 10.4 mph - N/A Rain Light Rain Showers
8:59 AM 41.0 °F 35.2 °F 37.4 °F 87% 29.68 in 6.2 mi NW 9.2 mph - N/A Rain Light Rain Showers
9:00 AM 41.0 °F 35.8 °F 37.4 °F 87% 29.68 in 6.2 mi NW 8.1 mph - N/A Rain Light Rain Showers
9:08 AM 41.0 °F 36.4 °F 37.4 °F 87% 29.68 in 6.2 mi NW 6.9 mph - N/A Rain Light Rain Showers
9:12 AM 39.2 °F 35.0 °F 37.4 °F 93% 29.68 in 6.2 mi NW 5.8 mph - N/A Rain Light Rain Showers
9:25 AM 41.0 °F 38.0 °F 37.4 °F 87% 29.68 in 6.2 mi NW 4.6 mph - N/A   Mostly Cloudy
9:31 AM 41.0 °F 39.0 °F 37.4 °F 87% 29.68 in 6.2 mi NW 3.5 mph - N/A Rain Light Rain
9:35 AM 41.0 °F 39.0 °F 37.4 °F 87% 29.68 in 6.2 mi NW 3.5 mph - N/A   Overcast
9:41 AM 41.0 °F - 39.2 °F 93% 29.68 in 6.2 mi WNW 2.3 mph - N/A   Overcast
9:55 AM 41.0 °F 39.0 °F 39.2 °F 93% 29.71 in 6.2 mi WNW 3.5 mph - N/A   Mostly Cloudy
10:25 AM 41.0 °F 37.1 °F 39.2 °F 93% 29.71 in 6.2 mi WNW 5.8 mph - N/A   Mostly Cloudy
10:55 AM 42.8 °F 41.1 °F 41.0 °F 93% 29.71 in 6.2 mi West 3.5 mph - N/A   Mostly Cloudy
11:25 AM 42.8 °F 38.6 °F 39.2 °F 87% 29.74 in 6.2 mi West 6.9 mph - N/A   Scattered Clouds
11:55 AM 42.8 °F 37.5 °F 39.2 °F 87% 29.77 in 6.2 mi West 9.2 mph - N/A   Mostly Cloudy
12:25 PM 44.6 °F 39.7 °F 41.0 °F 87% 29.77 in 6.2 mi WNW 9.2 mph - N/A   Partly Cloudy
12:55 PM 46.4 °F 41.5 °F 41.0 °F 81% 29.80 in 6.2 mi WNW 10.4 mph - N/A   Partly Cloudy
1:25 PM 46.4 °F 41.5 °F 37.4 °F 71% 29.80 in 6.2 mi NW 10.4 mph - N/A   Unknown
1:55 PM 48.2 °F - 39.2 °F 71% 29.83 in 6.2 mi NW 9.2 mph - N/A   Partly Cloudy
1:59 PM 48.2 °F - 39.2 °F 71% 29.83 in 6.2 mi NW 9.2 mph - N/A   Scattered Clouds
2:12 PM 48.2 °F - 39.2 °F 71% 29.83 in 6.2 mi NW 10.4 mph - N/A   Partly Cloudy
2:25 PM 48.2 °F - 39.2 °F 71% 29.86 in 6.2 mi NW 10.4 mph - N/A   Mostly Cloudy
2:55 PM 48.2 °F - 39.2 °F 71% 29.89 in 6.2 mi NW 9.2 mph - N/A   Scattered Clouds
3:25 PM 48.2 °F - 39.2 °F 71% 29.89 in 6.2 mi NW 6.9 mph - N/A   Scattered Clouds
3:55 PM 48.2 °F - 39.2 °F 71% 29.92 in 6.2 mi NW 5.8 mph - N/A   Mostly Cloudy
4:25 PM 46.4 °F 43.5 °F 39.2 °F 76% 29.95 in 6.2 mi WNW 5.8 mph - N/A   Mostly Cloudy
4:55 PM 46.4 °F 44.3 °F 39.2 °F 76% 29.98 in 6.2 mi NW 4.6 mph - N/A   Mostly Cloudy
5:25 PM 42.8 °F 40.1 °F 39.2 °F 87% 30.01 in 6.2 mi West 4.6 mph - N/A   Unknown
5:55 PM 42.8 °F 40.1 °F 39.2 °F 87% 30.04 in 6.2 mi West 4.6 mph - N/A   Mostly Cloudy
6:25 PM 42.8 °F 39.3 °F 39.2 °F 87% 30.06 in 6.2 mi West 5.8 mph - N/A   Unknown
6:55 PM 42.8 °F 38.6 °F 39.2 °F 87% 30.06 in 6.2 mi West 6.9 mph - N/A   Unknown
7:25 PM 42.8 °F 38.6 °F 37.4 °F 81% 30.09 in 6.2 mi West 6.9 mph - N/A   Unknown
7:55 PM 42.8 °F 38.6 °F 39.2 °F 87% 30.09 in 6.2 mi West 6.9 mph - N/A   Unknown
8:25 PM 41.0 °F 37.1 °F 37.4 °F 87% 30.12 in 6.2 mi West 5.8 mph - N/A   Unknown
8:55 PM 41.0 °F 36.4 °F 37.4 °F 87% 30.15 in 6.2 mi West 6.9 mph - N/A   Unknown
9:25 PM 41.0 °F 37.1 °F 37.4 °F 87% 30.15 in 6.2 mi West 5.8 mph - N/A   Unknown
9:55 PM 41.0 °F 36.4 °F 37.4 °F 87% 30.15 in 6.2 mi West 6.9 mph - N/A   Unknown
10:25 PM 39.2 °F 35.0 °F 37.4 °F 93% 30.18 in 6.2 mi West 5.8 mph - N/A   Unknown
10:55 PM 39.2 °F 34.2 °F 37.4 °F 93% 30.18 in 6.2 mi West 6.9 mph - N/A   Unknown
11:25 PM 35.6 °F 30.7 °F 33.8 °F 93% 30.21 in 6.2 mi West 5.8 mph - N/A   Unknown
11:55 PM 37.4 °F 32.8 °F 35.6 °F 93% 30.21 in 6.2 mi WSW 5.8 mph - N/A   Unknown